Theta_e
338 338 338 337 337 338 338 338 338 337 337 337 338 338 337 337 336 335 336 336 334 334 335 335 336 335 335 336 335 335 336 335 335 335 335 335 335 335 335 334 335 335 334 334 333 333 332 332 331 330 329 328 326 325 323 320 319 318 316 312 309 308 311 318 321 321 320 318 316 314 311 307 301 297 296 296 298 299 301 303 303 302 302 301 300
338 337 338 337 337 338 337 337 338 338 337 337 338 337 337 336 335 335 336 336 334 334 334 335 336 336 336 335 335 335 335 335 335 334 334 334 335 335 334 334 334 334 334 333 332 332 331 330 329 327 326 324 323 321 318 315 316 316 312 309 308 306 307 313 319 322 322 322 321 320 318 315 309 302 299 297 297 299 300 301 301 300 300 301 301
338 337 337 338 337 338 337 337 337 337 337 336 337 337 335 335 334 335 335 335 335 334 334 335 335 335 335 335 334 333 333 334 334 334 333 334 333 333 333 333 333 332 332 331 330 329 329 328 326 324 323 321 319 316 312 311 313 314 311 307 307 307 305 306 312 318 321 323 323 322 321 321 316 309 305 302 299 299 299 300 301 300 300 301 301
339 337 337 338 337 337 337 337 337 336 335 335 336 335 335 335 334 333 334 335 335 334 334 335 334 334 334 333 334 333 332 333 333 332 332 332 331 331 332 331 331 330 329 328 327 326 325 324 323 322 320 317 313 310 307 307 310 312 309 306 307 309 308 304 304 310 315 319 321 320 318 317 313 311 310 307 303 301 299 300 301 301 301 301 301
339 338 337 338 338 337 337 337 336 336 335 335 335 335 335 334 333 332 333 334 335 334 334 334 334 333 331 330 331 331 330 331 331 329 329 330 330 330 329 328 327 326 326 325 324 323 323 321 320 319 316 311 308 306 305 305 308 309 308 306 306 308 308 306 302 302 305 310 314 316 316 311 307 308 309 308 304 301 300 300 300 301 301 301 300
338 338 337 338 338 337 337 337 335 335 335 334 334 334 334 333 332 333 334 334 334 334 334 334 334 332 330 328 328 328 326 326 329 328 328 328 327 327 325 324 323 323 322 322 321 321 320 319 317 314 310 307 305 304 304 305 307 308 307 305 304 305 308 308 304 300 298 298 301 304 307 307 307 309 309 307 304 302 301 299 299 300 300 300 299
338 338 337 338 338 337 336 336 335 335 333 332 333 333 333 332 332 334 334 334 333 334 334 334 333 331 330 330 329 327 325 325 327 329 328 326 324 324 323 321 321 321 320 320 319 318 317 315 313 309 306 305 304 304 305 306 307 307 306 305 304 303 307 309 307 304 300 298 297 296 297 299 303 307 308 307 305 304 301 300 299 299 299 299 299
338 338 338 338 338 337 336 335 335 335 332 332 333 332 332 333 333 334 334 334 333 333 334 334 332 330 329 330 329 328 327 326 326 327 326 324 322 321 320 319 319 318 318 318 317 316 314 312 309 306 305 304 304 304 305 306 306 305 304 303 302 301 302 304 305 305 303 301 299 298 297 297 298 301 304 304 304 304 303 301 300 298 298 299 299
338 337 337 338 338 337 337 336 335 334 331 332 333 333 333 333 334 334 333 333 333 333 333 333 331 329 328 329 328 327 328 327 326 325 323 321 320 319 318 318 317 317 316 316 315 313 311 309 307 305 304 304 305 305 305 305 304 303 301 300 298 297 297 297 298 300 301 301 301 301 301 301 300 301 302 303 303 303 302 302 302 301 301 300 298
338 337 337 338 338 337 337 336 336 334 331 332 334 333 334 333 333 334 333 333 333 333 333 332 330 329 329 329 329 327 326 325 324 322 320 319 319 317 317 316 315 315 315 314 313 311 309 307 306 305 305 305 305 305 304 303 302 301 299 298 296 296 295 295 295 296 297 298 300 302 303 303 303 302 302 303 303 303 302 302 302 302 302 301 299
338 337 337 339 338 337 337 336 336 334 332 332 334 333 333 333 333 333 332 332 333 332 333 332 329 329 330 330 330 328 326 324 321 319 318 318 317 315 315 315 314 314 313 312 311 309 308 307 305 305 305 305 305 304 303 301 301 300 298 297 296 295 295 295 295 295 295 295 297 300 301 301 302 302 302 302 302 302 303 302 301 300 301 300 299
338 337 337 338 338 337 337 336 336 335 333 333 334 334 333 333 333 333 332 332 333 332 332 331 329 329 330 330 329 328 325 323 321 318 317 317 316 315 314 314 314 313 312 311 309 308 307 306 305 305 305 304 303 302 301 300 300 299 297 296 295 295 295 295 295 295 295 296 296 298 299 299 300 300 301 301 301 302 302 302 301 300 301 300 299
338 338 337 337 338 338 337 336 336 335 335 334 334 334 333 333 333 333 332 332 333 332 331 330 329 328 329 329 328 326 325 323 322 320 318 317 316 315 314 313 313 312 311 309 308 307 306 306 305 305 304 303 302 301 301 300 299 298 296 295 295 295 294 294 294 294 294 295 296 297 297 298 298 299 299 300 300 301 301 302 301 300 301 300 299
338 338 338 337 337 338 337 337 336 335 335 335 334 333 333 334 333 332 332 332 332 332 330 329 328 328 329 330 328 326 325 323 322 321 319 318 316 315 313 312 312 311 310 309 307 307 306 305 305 304 304 303 302 301 300 299 298 296 296 295 295 294 294 294 294 293 293 294 295 296 297 298 298 298 298 299 299 300 300 301 301 301 301 302 300
337 338 337 336 337 337 337 337 336 336 335 335 334 333 333 333 333 332 331 331 332 331 330 329 328 329 329 329 328 326 324 323 322 321 319 317 316 314 312 311 311 311 309 308 307 306 305 305 305 304 303 302 302 301 299 297 296 296 295 295 294 294 294 293 293 293 293 293 293 295 296 297 297 297 298 298 298 299 299 299 300 300 301 301 301
337 338 337 337 337 337 337 337 336 336 335 335 333 332 333 333 333 332 331 331 332 331 330 328 328 329 328 328 327 326 324 322 321 319 318 316 314 312 311 310 310 309 308 307 306 306 305 305 305 304 303 302 302 301 298 296 295 295 295 294 294 294 293 293 293 293 293 292 293 294 295 296 296 297 298 298 298 298 298 298 298 299 299 299 300
337 338 337 337 337 337 337 336 336 336 335 335 333 332 332 332 332 332 330 330 331 330 329 328 328 328 327 327 326 325 324 323 321 318 317 315 312 311 310 309 309 308 308 307 306 306 305 305 304 304 303 302 301 300 298 296 295 295 295 295 294 294 293 293 293 293 293 292 292 294 295 296 296 297 297 297 297 297 297 297 297 297 298 298 298
337 338 337 336 337 337 337 336 336 336 335 335 334 333 333 332 332 331 329 330 330 329 329 327 327 328 327 326 325 324 324 322 321 319 316 313 310 309 309 308 308 308 307 307 306 306 305 305 304 304 303 302 301 299 297 296 295 295 295 295 294 294 294 294 294 293 293 293 293 294 295 296 296 296 296 296 296 296 296 296 296 297 297 297 297
337 339 338 336 337 337 337 336 336 335 335 334 334 334 333 332 331 331 329 329 329 328 327 327 327 329 327 325 324 324 323 321 320 318 315 311 309 308 308 308 307 307 307 306 306 306 305 304 304 303 303 302 300 299 298 296 295 295 296 295 295 295 296 295 294 293 293 294 294 295 296 296 296 296 296 296 296 295 296 296 296 296 296 296 296
337 339 338 337 337 337 337 336 335 335 334 333 333 333 333 332 331 331 329 328 327 326 326 326 327 327 326 325 324 322 321 320 318 316 313 310 308 307 307 307 307 306 306 306 306 306 305 304 304 303 302 301 300 299 297 296 295 296 297 296 296 296 296 295 294 293 294 295 295 296 296 296 296 296 296 296 296 295 295 296 295 295 296 296 296
337 339 338 337 337 337 336 336 335 335 333 332 332 332 332 331 330 329 328 327 325 325 326 327 326 326 326 325 323 321 320 318 316 314 312 309 307 307 306 306 306 306 306 306 306 305 305 304 303 303 302 301 300 299 297 296 296 296 296 296 297 297 296 295 295 294 295 296 296 296 296 295 296 296 296 296 295 295 295 295 295 295 295 295 295
337 338 338 337 338 337 336 336 335 334 332 331 331 331 330 329 329 327 327 326 325 324 326 327 326 326 326 324 322 320 318 316 315 313 310 308 307 306 306 306 306 306 305 305 305 305 304 304 303 302 302 301 301 299 297 295 296 296 296 297 297 297 297 296 296 295 295 296 296 296 296 295 295 296 296 295 295 295 295 295 295 295 294 295 295
336 337 337 337 338 337 336 335 333 332 331 330 330 329 328 328 327 325 325 326 325 325 326 326 326 325 324 323 321 319 316 315 314 312 309 308 306 305 305 306 306 306 305 305 305 305 304 304 303 302 302 301 301 299 296 295 297 297 297 297 298 298 298 297 296 296 296 296 296 296 296 296 296 296 296 296 295 295 295 295 295 295 295 294 294
336 337 336 336 337 336 335 334 331 330 330 329 328 327 327 327 326 324 324 325 326 327 327 327 325 324 323 321 319 317 315 314 313 311 309 307 306 305 305 305 305 305 305 305 304 304 304 304 303 302 302 301 301 298 295 296 297 298 298 298 298 298 298 298 296 296 296 296 296 296 296 296 297 297 297 296 295 295 295 295 295 294 294 294 294
337 337 336 335 336 335 334 333 331 330 329 327 326 326 325 325 324 323 322 323 326 328 328 326 325 323 322 320 318 316 315 314 312 310 308 307 306 305 305 305 305 305 305 304 304 304 304 303 303 302 302 302 301 298 296 297 297 298 299 298 298 298 298 298 297 296 296 296 296 296 296 297 297 297 297 296 295 295 295 295 294 294 294 294 295
336 336 336 334 334 334 333 332 331 330 328 327 326 325 324 324 323 323 322 322 325 327 327 325 324 323 320 318 316 315 314 313 311 309 308 307 306 305 305 305 305 304 304 304 304 304 304 303 303 302 302 302 301 299 298 297 298 298 299 299 298 298 298 298 297 296 296 296 296 296 297 297 297 297 297 296 296 295 295 295 294 294 294 294 295
336 336 335 333 332 332 331 331 330 330 328 327 326 324 323 322 321 322 321 322 325 326 325 324 323 321 319 316 315 315 313 312 311 309 308 306 305 304 304 304 304 304 304 304 304 304 303 303 303 302 302 302 301 300 299 298 298 299 299 299 299 299 298 298 297 297 296 296 296 296 297 297 297 297 296 295 295 295 295 295 294 294 294 295 295
336 336 335 333 331 330 330 330 329 329 328 327 326 324 323 322 320 320 319 321 325 325 322 322 321 319 317 315 314 314 312 311 310 308 307 306 305 304 304 304 303 303 304 304 304 303 303 303 303 302 302 302 301 300 299 298 299 299 300 299 299 299 299 298 298 297 296 296 296 296 297 297 296 295 294 293 293 293 293 294 293 293 294 295 295
337 336 334 332 331 329 328 328 327 327 326 325 324 323 323 321 320 319 317 319 324 323 320 319 318 317 316 315 314 313 311 310 309 308 307 306 305 304 304 303 303 303 303 303 303 303 303 303 303 303 302 302 301 300 299 299 299 299 300 300 300 299 299 298 298 297 297 297 296 296 296 295 294 293 292 292 292 291 290 291 291 291 292 294 295
336 334 332 331 329 328 327 327 326 326 325 324 323 322 321 320 319 318 316 318 322 321 318 317 316 315 315 314 312 311 309 309 308 307 306 305 305 304 304 303 303 303 303 303 303 303 303 303 303 302 302 302 301 301 300 300 299 299 300 300 300 300 299 299 298 298 298 297 296 296 295 294 294 293 292 292 291 290 289 289 289 289 290 292 294
334 333 331 330 329 328 328 327 327 326 325 324 322 321 320 319 317 317 316 316 319 319 317 316 314 313 313 312 311 310 308 308 307 306 305 305 304 304 304 303 303 302 301 302 303 303 303 303 303 302 302 302 301 301 301 300 299 299 299 299 300 299 299 299 299 298 298 298 297 296 295 294 294 293 292 291 290 289 289 289 289 289 290 291 292
334 333 331 331 329 328 328 328 327 327 325 324 322 320 319 318 316 316 316 315 315 316 315 314 314 313 312 311 309 308 307 307 306 306 305 304 304 304 303 303 302 301 300 300 302 303 303 303 303 303 303 302 301 301 300 300 299 299 299 299 300 299 299 299 299 298 298 298 297 297 296 295 294 293 292 291 289 288 289 289 289 289 289 290 291
334 333 331 330 330 329 329 329 327 325 324 323 321 319 318 317 316 315 315 314 313 314 314 313 312 312 311 310 309 308 307 306 305 305 305 304 304 303 302 302 302 300 298 298 300 302 303 303 303 303 303 302 302 301 300 300 300 299 299 299 299 299 299 299 299 298 298 298 297 297 296 295 294 293 292 291 289 289 289 289 289 289 289 290 290
333 332 331 330 330 329 329 327 326 324 323 322 320 319 318 317 316 315 314 313 312 312 312 312 311 311 310 309 308 307 306 305 305 304 304 304 303 302 302 302 301 298 295 296 299 302 302 303 303 302 302 302 301 301 300 300 300 300 299 298 298 299 298 298 298 298 298 298 296 295 296 296 294 293 292 290 289 289 289 289 289 289 289 289 289
333 332 331 330 330 329 327 325 324 323 322 321 320 319 318 317 316 315 314 313 312 311 311 311 310 309 309 308 307 306 306 305 304 304 303 303 302 302 302 301 298 295 294 295 298 301 302 302 302 302 302 302 301 301 300 300 300 299 299 299 299 299 298 298 298 297 297 297 295 294 295 295 294 293 292 290 289 289 290 290 291 290 289 289 289
332 332 331 330 330 328 326 325 324 322 321 320 320 319 318 316 315 315 313 313 312 311 310 310 309 308 307 307 306 304 304 303 302 303 302 302 302 302 302 299 295 294 294 295 297 300 301 302 302 302 302 301 301 301 300 300 300 299 299 299 299 299 298 298 297 297 297 296 294 294 295 294 294 293 292 290 289 289 291 293 293 292 292 291 290
332 332 332 331 329 328 326 324 323 321 321 320 319 318 317 315 314 314 313 313 311 310 309 308 307 306 305 304 304 304 303 303 302 302 302 302 302 302 301 298 295 294 294 295 297 300 301 301 301 301 301 301 300 300 300 299 299 299 299 299 299 299 299 298 297 297 297 295 294 294 295 294 294 293 291 290 289 290 292 294 294 293 294 294 293
333 333 332 331 329 327 325 323 322 321 320 320 319 318 317 315 313 313 312 312 311 310 309 307 306 304 304 305 307 307 305 304 303 303 303 302 302 302 301 298 294 293 294 295 297 299 300 300 301 300 300 300 300 299 299 299 299 299 298 298 299 299 299 298 297 297 296 295 294 294 295 294 294 293 292 291 290 290 292 294 294 294 295 295 294
332 332 332 330 329 326 325 323 322 321 320 319 318 317 316 314 314 312 312 312 311 310 308 307 305 304 304 307 309 308 306 305 304 303 302 302 302 301 300 296 293 293 294 295 296 298 299 300 300 300 300 300 299 299 298 298 297 295 295 296 298 299 299 298 298 297 296 295 294 294 294 293 294 293 292 291 291 291 292 293 294 294 295 295 294
332 332 331 330 328 326 324 323 323 322 320 318 318 317 315 314 314 313 312 312 311 310 308 306 305 304 305 307 308 307 306 305 304 303 302 302 302 301 298 295 293 293 294 295 296 297 298 299 299 299 299 298 298 298 296 294 293 292 293 295 297 298 298 298 298 297 297 296 295 295 294 293 294 294 293 292 292 292 292 293 294 295 295 294 293
332 331 330 330 328 326 325 324 323 321 319 318 317 316 315 315 314 313 313 312 311 309 307 306 305 304 306 307 307 305 305 305 304 303 303 302 301 301 298 294 293 293 294 295 296 297 298 298 298 298 298 298 297 295 292 291 291 292 293 295 297 298 298 298 298 297 297 296 296 296 295 294 293 294 294 293 293 293 292 293 294 294 294 293 293
330 330 329 329 328 326 325 324 322 320 319 318 317 316 316 315 314 313 313 312 310 308 307 305 304 304 306 308 307 305 304 303 302 303 302 301 301 301 299 294 292 293 294 295 296 297 297 297 297 297 297 296 294 292 290 290 290 291 291 293 295 296 296 297 297 297 296 296 296 296 295 294 294 294 294 294 293 293 293 293 293 293 293 293 293
329 329 328 328 327 327 325 323 321 320 319 318 317 317 316 315 314 313 313 311 310 308 306 305 305 305 306 306 305 304 303 302 302 302 302 301 300 300 297 294 292 292 293 295 296 296 297 297 296 296 295 293 291 290 290 290 290 291 291 292 293 293 294 295 297 297 296 296 295 295 294 294 294 294 294 294 294 293 293 293 293 293 293 293 293
329 328 328 328 327 327 325 323 321 320 319 318 317 317 316 314 314 313 312 311 309 308 306 305 304 304 305 305 304 303 302 302 302 302 302 301 299 298 296 294 292 292 294 295 295 295 296 296 296 295 293 291 290 290 290 290 290 291 292 292 293 293 294 294 295 296 296 295 295 294 294 294 294 294 294 294 294 294 293 293 293 293 293 293 294
328 327 327 327 327 326 325 323 320 319 318 317 317 317 316 315 314 313 311 310 309 307 306 305 304 304 304 304 303 302 302 302 302 302 301 300 298 297 295 293 292 293 294 294 295 295 295 295 295 294 294 292 291 290 290 290 290 291 292 293 293 294 294 294 294 295 295 295 295 295 295 295 295 295 294 294 294 294 293 293 293 293 293 294 294
328 326 326 326 326 325 324 322 320 318 318 317 317 318 317 315 314 312 311 310 308 307 306 305 304 304 304 303 302 302 302 302 301 301 301 300 298 297 295 293 292 293 294 294 294 294 294 295 295 295 295 294 292 291 291 291 290 291 292 293 293 294 294 294 294 295 295 295 295 295 295 295 295 295 294 294 294 294 294 293 293 293 293 294 294
326 325 324 325 326 325 323 321 319 318 317 317 317 317 317 315 313 312 310 309 308 307 305 304 304 304 303 303 302 302 301 301 301 301 300 300 299 298 296 293 292 293 294 294 293 293 295 296 296 296 296 295 294 293 293 292 290 290 292 293 293 294 294 294 294 295 295 295 295 295 295 295 295 295 295 294 294 294 294 294 294 294 294 294 294
324 323 324 325 325 324 323 321 319 318 318 317 316 316 316 315 313 311 310 309 307 306 306 305 304 304 303 302 302 302 301 301 301 301 300 300 299 298 296 294 294 294 294 293 292 293 295 297 297 298 298 297 297 296 295 293 291 290 291 293 294 294 294 294 295 294 294 295 295 295 295 295 295 295 295 295 296 296 296 295 295 295 294 294 293
322 322 323 324 324 323 322 320 319 318 318 317 316 315 315 314 312 311 310 309 307 306 305 305 304 303 303 302 302 302 301 301 301 301 301 300 300 299 298 297 298 298 296 294 292 293 294 296 297 298 298 299 299 298 297 295 293 291 291 292 293 294 294 294 294 294 294 294 295 295 296 296 296 296 296 296 296 296 296 296 296 295 295 295 294
322 322 322 323 323 322 321 320 318 318 317 317 316 314 313 313 312 311 310 309 307 305 305 304 304 303 302 302 302 301 301 301 301 301 301 300 300 300 300 300 300 300 299 296 293 292 294 295 297 298 298 298 299 298 297 297 297 295 294 292 291 292 293 294 294 294 294 294 295 296 296 296 296 296 296 296 296 296 296 296 296 296 296 295 295
321 322 323 323 322 321 320 319 317 317 317 316 315 313 312 312 311 311 310 309 307 305 304 304 303 303 303 302 302 301 301 301 301 301 301 301 300 300 300 300 300 300 299 296 293 293 295 296 297 298 298 298 298 298 298 299 298 298 297 295 293 291 292 293 294 294 294 294 295 296 297 297 297 297 296 296 296 296 296 296 296 296 296 296 295
Wind_Speed
9 11 12 13 15 15 15 16 15 16 18 17 15 14 16 17 18 19 18 14 14 15 13 15 16 15 16 16 17 17 15 14 14 13 12 12 11 10 10 8 6 7 6 3 1 1 1 2 4 5 5 5 4 4 4 4 3 4 5 6 7 9 10 11 15 15 14 14 14 14 16 19 23 25 25 24 21 19 17 16 16 16 16 16 17
8 11 12 14 16 15 16 16 14 15 17 18 17 13 15 17 19 20 21 19 18 17 16 16 16 17 18 18 19 19 17 16 16 15 14 13 13 12 11 9 8 7 6 4 3 2 3 4 4 4 4 3 4 4 4 3 3 4 6 8 9 12 13 9 14 12 7 8 9 8 8 9 14 20 24 24 22 19 18 17 17 17 17 16 15
10 11 12 15 16 16 17 15 14 15 17 21 23 19 17 17 19 23 23 22 21 21 20 16 15 16 18 20 20 20 19 18 17 16 15 14 14 13 11 10 9 7 6 4 3 3 2 2 2 2 2 3 4 3 3 3 4 4 5 8 11 13 16 12 9 9 4 5 7 5 4 4 6 10 15 18 19 19 19 18 16 16 17 16 15
11 12 12 14 16 16 17 15 15 18 19 21 23 22 19 17 22 24 23 23 23 21 18 15 14 15 18 21 21 20 20 19 17 17 16 15 15 13 11 10 8 6 5 4 3 2 1 1 0 1 2 3 4 4 5 5 5 5 5 7 9 11 14 17 13 8 5 4 3 2 2 2 2 5 7 10 13 16 17 17 15 14 15 15 15
12 13 11 13 16 16 16 15 16 20 20 19 20 20 17 16 22 23 22 24 22 17 16 17 19 19 20 21 22 22 21 21 19 18 17 15 14 13 11 9 6 5 4 3 3 2 2 1 1 2 3 4 5 7 8 7 7 6 6 8 10 11 12 15 19 18 13 7 4 3 1 1 2 3 5 6 8 12 14 14 14 14 13 14 15
11 12 12 13 15 15 16 16 16 18 17 18 18 17 15 16 21 23 23 20 16 16 19 22 23 24 25 25 23 22 20 20 20 18 17 15 14 12 10 7 5 4 4 4 4 3 3 3 3 4 6 7 8 9 9 9 9 9 9 10 11 13 13 12 17 21 22 21 17 13 8 5 3 1 2 3 5 8 11 12 14 14 13 13 15
10 11 12 13 14 14 15 17 16 15 16 18 15 14 16 18 21 22 19 17 17 20 24 25 24 25 27 26 22 20 19 19 20 19 16 14 13 11 9 8 6 5 6 6 5 5 5 5 6 7 8 10 10 11 12 12 11 11 11 11 12 14 13 11 11 14 18 22 24 23 20 15 9 4 2 1 3 4 8 11 11 13 13 12 12
11 11 12 14 15 15 16 17 16 15 17 19 17 16 17 18 17 17 16 18 21 24 24 23 22 23 25 23 20 20 21 20 20 18 15 13 12 11 10 9 8 7 8 8 7 7 6 7 8 9 10 12 12 13 14 14 14 14 14 15 15 17 17 15 13 12 12 15 18 21 22 20 18 13 8 4 1 2 4 7 8 10 12 12 10
12 13 12 13 16 17 17 17 16 16 18 18 19 18 16 15 17 16 15 17 20 22 23 21 21 23 24 23 22 22 22 22 20 17 15 14 12 11 10 10 10 10 9 9 8 8 8 9 9 10 12 13 14 14 15 15 16 16 17 18 20 21 22 23 22 19 15 13 12 12 13 14 14 13 10 7 5 3 3 5 6 6 6 9 9
12 13 13 14 17 17 17 17 16 17 19 18 17 18 16 16 19 17 15 16 18 21 24 21 22 24 24 24 24 23 23 23 21 19 17 15 13 13 12 12 12 12 11 10 9 9 9 10 10 11 13 14 15 15 16 17 17 18 19 19 21 23 24 25 26 25 22 20 16 12 10 9 8 9 9 8 7 6 5 5 8 7 4 6 8
12 13 13 15 18 17 17 17 16 17 19 18 16 17 19 19 19 15 14 17 19 21 23 19 20 23 23 23 24 24 25 25 23 21 18 16 14 14 13 13 13 13 12 11 11 10 11 11 11 13 14 15 15 16 17 18 18 19 20 20 22 24 25 25 26 26 25 25 22 18 14 12 10 9 9 9 9 7 6 5 8 8 4 5 8
11 12 14 15 17 18 17 18 18 18 19 19 19 20 22 21 18 15 15 17 18 19 21 17 17 23 24 24 25 26 26 25 24 22 19 16 15 15 15 15 15 14 13 13 13 12 12 12 13 14 15 15 16 17 18 18 18 19 20 21 23 24 25 25 26 25 25 24 23 20 17 15 14 12 10 10 10 8 6 5 7 6 3 4 7
11 12 14 13 15 17 17 18 19 19 20 21 22 22 22 21 18 16 15 16 16 17 19 18 19 24 25 25 26 25 25 24 22 20 19 17 16 15 15 16 17 16 15 15 15 13 13 14 15 15 16 16 17 17 17 17 18 20 21 22 23 24 24 25 26 25 25 24 22 21 19 17 16 14 12 11 10 8 7 6 6 5 3 4 6
12 11 14 14 14 16 17 19 20 20 21 21 21 22 23 21 17 16 14 15 17 17 18 20 23 24 23 24 24 23 23 21 19 18 17 16 14 14 15 17 18 18 17 17 16 15 14 15 15 16 17 17 17 17 17 18 19 21 22 23 24 24 24 25 25 25 25 25 23 21 20 18 16 15 14 13 11 10 10 9 9 6 3 4 6
13 11 13 14 16 17 18 19 20 20 21 21 20 22 23 20 16 16 15 15 16 16 17 21 24 24 23 23 23 22 21 20 18 17 16 14 13 14 16 17 18 19 18 17 16 15 15 16 16 16 17 17 17 17 18 19 20 22 23 23 24 23 23 24 24 24 24 25 24 23 21 19 17 15 14 13 12 11 11 11 11 9 5 6 8
13 11 13 16 18 19 18 19 20 21 21 21 21 23 23 19 15 14 15 15 15 16 18 21 24 24 23 24 22 21 21 20 18 17 15 13 13 15 17 17 18 19 18 17 17 16 16 17 17 17 17 17 17 17 18 19 21 23 23 23 23 22 22 23 23 23 24 24 24 23 21 19 17 15 13 13 12 12 12 12 12 11 7 7 7
14 11 13 16 19 20 21 20 21 24 23 22 22 24 22 18 15 15 15 15 15 18 22 22 23 24 23 23 22 21 21 20 19 18 15 13 14 15 17 18 18 18 18 18 18 17 17 18 18 18 18 17 17 17 18 20 21 23 22 23 22 22 22 22 22 22 22 22 23 22 20 17 16 14 13 13 12 12 12 12 12 11 8 7 6
16 13 14 17 19 21 22 21 22 23 24 24 24 22 20 17 15 17 17 17 17 20 23 23 24 24 23 23 22 22 21 20 19 17 15 15 16 17 18 19 19 18 19 20 19 19 18 18 19 19 18 17 17 18 19 20 21 22 22 22 22 21 21 21 21 21 21 21 21 20 17 15 14 14 13 13 13 12 11 10 10 9 8 7 6
14 14 14 15 19 22 23 21 22 23 23 24 25 23 20 18 18 20 20 19 19 21 24 25 26 26 25 24 23 22 21 20 18 17 16 17 18 18 19 20 19 19 20 20 20 20 20 19 19 19 19 18 18 18 18 19 21 22 21 21 20 20 20 20 20 21 20 20 19 17 15 14 13 13 13 13 12 12 11 10 9 7 6 6 6
13 12 13 15 19 24 24 22 21 22 23 23 24 23 21 20 21 22 22 23 24 24 25 28 28 27 26 24 23 23 22 21 19 18 17 18 19 19 20 20 21 20 20 20 21 20 20 20 19 19 19 18 18 18 18 19 20 21 20 19 19 19 20 20 20 20 19 17 16 16 15 14 12 12 12 12 12 12 10 9 9 8 6 6 6
14 11 13 15 19 24 25 24 21 20 22 22 22 21 21 21 22 23 25 26 25 25 28 29 28 27 26 25 24 24 23 22 20 19 19 19 20 20 21 21 21 20 20 21 21 20 20 19 19 19 19 18 18 18 18 19 20 21 20 20 19 18 19 18 17 17 17 15 14 14 14 14 13 12 11 11 11 11 10 9 9 9 8 7 7
14 12 14 15 17 23 25 25 23 20 19 20 21 21 20 22 23 25 27 28 26 28 31 30 28 28 27 26 26 26 25 23 22 21 20 21 21 21 21 21 21 21 20 21 21 21 20 19 20 20 19 18 18 17 18 20 21 21 21 20 18 18 18 16 15 15 15 15 14 13 13 14 13 12 12 12 12 11 11 11 10 9 9 9 8
14 12 14 13 15 23 25 23 22 20 20 20 21 22 23 24 25 27 29 30 30 30 30 29 28 27 27 27 27 27 26 25 23 22 22 21 21 21 21 21 22 22 21 20 20 20 20 19 20 20 20 19 18 17 18 20 21 20 20 19 18 17 16 15 14 13 13 13 12 12 12 12 12 11 12 12 12 12 12 12 11 10 10 11 10
16 13 13 12 14 20 23 21 19 20 22 21 20 22 26 28 27 27 30 32 32 31 28 27 28 28 27 28 28 28 27 26 24 24 23 23 22 21 21 22 23 22 22 21 20 20 20 20 20 20 20 19 18 18 19 20 20 18 17 17 16 15 14 13 13 13 12 11 11 11 11 11 10 10 11 12 13 13 13 12 12 11 11 12 12
17 14 12 14 15 15 19 21 21 21 22 22 22 24 27 29 28 28 30 32 33 31 29 28 29 29 29 29 29 29 28 27 26 25 24 23 22 22 23 23 22 22 22 21 21 20 20 20 20 21 20 20 19 18 19 19 18 17 16 16 15 14 13 13 12 12 11 10 10 10 10 10 10 11 11 12 13 14 13 12 13 13 12 13 13
18 17 14 14 14 13 16 21 24 24 22 22 23 25 27 28 29 30 30 31 33 31 30 30 30 30 30 29 29 30 29 28 27 26 25 24 23 23 24 23 22 22 22 22 21 21 21 21 21 21 21 20 19 18 18 18 18 17 16 15 13 12 12 11 11 10 10 9 9 9 9 10 10 11 11 11 13 14 14 13 14 14 14 14 14
14 15 14 15 14 13 15 20 25 26 24 24 24 24 26 28 28 30 32 32 32 31 31 32 32 31 31 31 31 31 31 29 28 27 26 25 24 24 24 23 22 21 22 22 22 22 21 21 21 21 21 20 19 19 18 17 17 16 14 13 13 11 11 10 10 9 9 8 8 9 9 10 11 11 12 12 13 14 13 13 14 15 15 14 14
14 15 16 17 15 13 15 19 24 26 25 25 23 24 27 29 29 30 32 32 31 32 33 33 32 32 32 32 32 31 31 30 28 27 26 26 26 25 24 23 22 21 22 22 22 22 22 21 21 21 21 21 20 19 18 17 16 14 13 12 11 10 10 9 9 8 7 7 8 9 10 10 11 12 13 14 15 16 15 14 15 16 15 14 14
15 15 17 17 17 15 15 18 22 24 24 22 20 21 24 27 31 32 31 32 32 33 34 33 33 33 33 33 33 32 31 30 28 28 27 27 27 26 24 23 22 22 22 22 22 22 22 22 22 22 22 21 20 19 18 17 16 14 13 11 11 10 9 9 8 7 6 6 6 8 10 10 10 12 13 14 15 17 17 16 15 16 15 14 14
15 16 17 18 19 18 17 19 21 24 24 22 21 21 21 24 31 34 31 32 34 34 34 34 33 33 33 34 33 32 31 30 29 29 29 29 28 27 25 24 23 22 21 22 23 23 23 23 22 23 23 22 21 19 16 15 15 14 12 11 11 10 9 8 7 6 5 4 5 6 8 9 9 11 14 15 16 17 17 16 15 15 14 13 13
17 17 17 17 19 19 18 20 23 25 25 23 22 24 24 23 28 34 33 31 34 35 35 34 34 33 34 34 34 33 32 31 30 30 30 29 28 27 26 25 23 22 22 23 24 24 24 24 23 23 23 22 21 19 16 14 14 13 12 11 11 11 10 8 6 5 4 3 3 4 6 8 9 12 15 16 17 17 17 16 15 15 14 14 13
20 19 18 18 19 20 20 22 25 27 27 24 23 26 27 24 26 34 34 30 31 34 35 34 34 34 34 34 34 33 32 32 31 31 30 30 29 28 27 25 23 22 23 24 25 26 25 25 24 23 23 23 22 20 17 15 14 13 12 11 11 11 10 8 6 5 4 2 3 3 5 7 9 12 15 16 17 18 18 17 16 15 15 15 14
20 19 19 19 19 21 24 27 28 27 27 27 27 28 28 27 29 33 34 31 31 33 35 34 34 35 35 35 35 34 33 33 32 31 31 31 30 29 27 25 23 22 23 25 26 26 26 25 25 24 23 23 22 20 18 16 15 14 12 11 11 10 10 8 7 6 4 2 2 3 4 6 9 12 15 16 17 18 19 19 18 17 17 16 16
19 19 19 18 19 20 23 25 25 24 25 26 28 29 30 30 31 32 32 32 31 32 34 35 35 35 35 35 35 34 34 33 32 32 32 31 31 29 26 24 23 23 24 25 27 27 26 26 25 24 24 23 22 21 19 17 16 14 13 12 11 9 9 9 8 7 4 2 2 3 4 5 9 12 15 16 16 18 20 20 20 20 19 19 18
18 19 18 18 18 19 20 21 23 24 25 25 25 27 30 31 32 33 33 33 31 31 33 35 35 35 36 36 36 36 34 33 33 33 33 32 31 29 26 24 23 23 25 26 26 27 27 26 26 25 24 23 22 21 19 18 16 15 13 12 10 9 9 9 9 9 5 1 1 3 4 6 8 11 13 14 15 17 19 20 21 21 21 21 21
19 21 20 18 18 19 20 21 21 23 26 26 24 26 28 28 30 34 35 35 33 30 30 33 35 35 35 34 32 31 30 31 32 33 32 32 30 28 26 24 24 25 25 25 26 27 27 27 26 25 24 23 22 21 19 17 16 15 14 12 10 10 9 9 10 10 6 2 1 2 3 5 8 10 11 12 14 15 17 18 19 22 22 21 20
20 20 18 18 18 20 22 24 23 23 26 27 26 26 27 28 30 31 31 31 31 29 29 32 33 31 30 28 26 25 25 28 31 33 33 32 31 28 26 25 25 26 25 25 26 27 27 27 26 25 25 24 22 21 19 17 16 15 14 13 12 11 10 10 10 10 7 3 2 1 2 4 6 8 9 11 13 14 15 15 17 20 20 19 21
21 21 18 18 21 24 26 27 27 25 26 29 29 27 28 29 28 28 25 23 24 26 28 30 30 29 30 31 30 29 30 31 33 34 34 33 30 28 26 25 25 26 26 26 26 27 27 26 26 25 25 24 23 21 19 18 16 16 15 14 13 12 11 11 10 10 7 4 3 1 1 3 5 7 8 9 11 13 13 14 15 17 16 16 20
23 24 22 22 23 25 26 27 26 25 27 32 33 31 30 28 24 24 24 20 21 25 27 30 31 32 33 34 34 34 34 34 35 34 33 32 29 27 25 24 25 25 26 27 27 27 27 26 25 25 24 23 22 21 20 18 16 16 16 15 14 12 12 12 11 10 8 6 4 2 1 2 4 6 6 7 9 11 11 12 14 14 13 15 20
23 25 25 23 24 25 25 26 26 27 29 32 32 31 30 27 22 23 23 22 23 27 29 31 33 34 35 35 35 35 35 35 35 34 32 30 28 26 24 24 25 25 26 27 26 26 27 27 25 24 23 22 22 20 19 17 16 16 17 17 15 13 13 13 11 9 8 7 5 3 2 2 3 5 5 6 7 8 10 11 11 11 12 15 20
24 25 24 22 23 25 26 25 26 27 30 32 32 29 27 23 21 22 23 23 26 28 29 31 33 34 36 35 35 35 36 36 36 35 33 31 29 26 24 25 25 25 26 27 26 26 27 26 26 24 23 21 20 19 18 17 16 16 17 17 15 13 13 13 11 10 8 7 6 4 3 3 3 4 5 6 6 7 8 9 9 10 12 16 20
21 24 24 23 22 23 24 23 24 28 30 32 31 27 23 20 19 22 23 23 26 29 31 32 34 36 37 36 35 35 36 37 37 35 34 33 31 28 26 26 26 26 27 27 27 27 25 25 25 24 22 21 19 18 18 17 16 16 16 17 16 15 14 13 11 10 9 7 6 5 4 4 3 3 5 6 7 7 8 9 10 11 13 16 19
18 22 24 23 21 22 22 22 24 27 29 31 30 26 23 22 23 24 24 24 27 31 33 34 35 36 37 36 35 35 35 37 37 35 34 34 33 31 29 28 27 27 26 26 27 25 23 22 23 22 21 21 19 18 17 16 15 15 15 17 16 15 16 14 11 10 9 7 7 6 5 4 3 3 5 6 7 8 9 10 11 12 13 15 18
18 21 24 23 21 21 22 22 24 26 28 31 30 26 24 25 26 26 24 25 29 32 33 34 36 36 35 35 34 33 34 35 36 36 35 35 35 33 31 28 27 27 27 26 25 23 20 19 19 19 20 21 20 19 17 15 15 15 15 16 16 16 16 16 13 11 10 9 7 6 5 4 3 4 5 7 8 8 10 11 12 12 13 15 16
18 20 22 22 21 22 22 21 23 25 27 30 30 28 27 26 27 27 27 28 31 33 34 35 35 34 34 33 32 32 33 34 36 36 35 35 35 33 31 30 30 30 28 25 22 21 19 18 18 18 19 20 20 19 17 15 14 14 16 17 17 17 17 16 14 12 11 10 8 6 5 4 4 4 6 7 8 8 9 10 11 12 12 13 14
16 17 19 20 20 21 21 21 21 23 26 28 31 31 30 28 27 29 30 32 34 35 35 36 35 34 34 32 32 32 33 35 36 36 36 36 35 35 34 34 33 32 28 25 25 23 19 17 17 18 18 19 19 19 17 16 15 15 16 18 18 18 17 16 15 13 11 9 7 6 5 5 5 5 6 7 8 8 9 10 10 11 10 11 12
15 17 19 19 19 20 20 20 21 22 24 28 30 30 29 28 29 30 32 33 35 34 35 35 36 35 33 33 33 34 34 35 36 35 35 35 35 36 36 34 33 31 27 27 30 28 21 17 17 17 16 18 19 18 17 17 16 16 17 19 19 18 17 16 15 13 11 9 7 6 6 6 6 6 7 8 9 9 9 9 9 9 10 11 12
15 18 20 19 18 20 20 20 21 22 24 25 25 25 26 28 30 31 33 34 34 33 32 33 35 35 34 33 34 33 34 35 36 35 33 32 31 33 34 35 35 33 31 32 35 33 28 23 20 18 17 17 17 18 19 19 18 17 18 19 19 19 18 17 15 13 11 9 7 6 6 7 7 7 7 7 8 8 8 9 9 9 10 12 13
16 17 19 18 18 19 20 20 20 21 22 21 20 23 27 29 30 32 34 35 34 32 31 31 31 33 34 33 32 33 34 35 34 32 30 30 32 34 35 36 37 36 35 36 38 38 36 32 27 23 22 19 17 19 20 19 16 16 16 16 17 18 18 17 15 13 11 9 7 6 6 6 6 6 6 7 7 8 8 9 10 10 11 11 11
15 16 17 17 17 18 20 19 18 19 20 19 19 23 27 29 31 34 35 35 34 32 30 29 29 31 33 34 32 33 34 34 33 30 27 29 33 36 36 37 37 35 34 34 35 37 37 35 31 29 27 24 20 18 17 15 14 14 13 13 13 14 15 16 15 14 12 10 8 7 6 7 7 6 6 7 7 9 10 10 11 11 11 12 12
15 17 18 16 16 17 19 18 18 19 20 19 19 22 26 29 31 34 35 36 35 33 30 29 30 31 34 35 35 33 32 32 32 31 30 29 29 29 30 31 31 32 33 34 34 34 34 33 31 28 25 21 18 15 14 13 13 13 13 13 13 13 14 16 16 15 13 11 10 8 7 7 7 7 7 8 9 10 11 12 12 12 12 12 13
Wind_Direction
188 184 191 196 200 204 203 202 198 193 197 199 190 182 179 174 168 162 165 167 167 169 167 167 166 161 158 157 155 152 154 157 155 153 154 154 150 150 149 144 150 158 153 150 191 220 291 304 298 304 307 315 333 350 356 359 29 57 71 80 84 75 80 123 141 132 123 115 105 98 90 78 71 67 65 66 66 65 66 65 63 60 56 49 47
177 185 194 199 200 199 201 200 190 182 188 195 194 184 179 175 164 159 169 178 177 179 182 180 175 171 167 162 158 153 155 159 156 153 154 154 154 155 154 151 159 163 166 178 200 235 266 279 282 295 308 334 359 7 17 34 67 78 88 87 85 78 70 105 150 155 153 147 141 132 119 96 76 67 61 60 62 62 64 64 63 61 57 52 48
189 193 196 201 201 197 199 194 185 182 179 190 199 193 183 178 165 165 176 181 184 188 189 183 176 176 172 166 161 157 156 157 155 153 154 156 154 152 152 151 157 164 174 191 206 228 246 266 281 316 345 11 20 32 57 79 98 104 108 94 85 79 67 73 132 172 182 157 163 162 152 147 107 76 63 58 58 59 60 61 62 59 56 52 49
194 196 197 200 201 195 194 189 181 183 180 184 193 192 189 180 165 168 178 185 189 189 183 172 163 167 168 166 163 158 155 153 152 150 150 153 148 146 149 150 160 173 181 193 204 209 214 241 292 21 24 43 62 86 95 101 117 125 124 106 94 87 74 67 77 107 138 158 181 164 156 168 122 92 78 62 53 55 55 55 57 56 53 51 48
193 196 196 199 202 194 190 186 179 186 185 175 178 188 188 165 156 167 181 189 189 176 165 164 164 165 160 154 152 151 149 148 149 147 146 149 147 147 150 152 164 176 174 177 174 171 159 127 93 80 82 92 97 102 105 107 117 126 120 111 105 100 93 79 73 77 89 99 95 93 138 112 77 108 110 80 57 54 53 53 53 51 51 50 48
193 195 195 197 200 192 186 183 183 190 181 164 172 183 170 152 160 174 181 183 175 163 170 176 173 168 158 150 148 147 145 145 149 150 150 152 151 151 149 148 153 155 152 152 147 140 129 113 104 111 110 105 103 100 104 110 113 116 112 109 110 108 105 94 81 78 79 81 82 81 83 85 85 161 148 111 88 67 54 52 52 51 52 52 49
194 193 193 196 195 186 183 184 186 184 166 160 169 167 163 172 177 177 174 168 165 172 182 182 175 169 163 158 155 153 149 147 151 155 158 158 154 149 143 137 135 138 140 136 132 125 116 115 114 117 112 104 102 101 103 109 109 109 110 111 113 112 109 102 91 84 79 78 80 83 84 86 87 82 76 109 141 102 57 51 52 51 51 51 49
204 198 194 197 194 186 184 185 186 172 156 162 167 163 175 184 179 173 168 166 172 180 183 182 175 165 159 156 158 163 160 151 152 157 161 161 153 143 135 130 130 133 134 130 125 119 115 118 118 117 113 106 104 104 105 107 107 107 107 107 106 104 103 101 95 89 87 84 82 82 80 80 79 76 71 55 82 118 66 50 47 53 54 46 43
208 203 199 201 196 192 186 182 182 162 149 163 170 168 174 179 184 183 168 165 172 178 183 182 172 162 160 164 165 166 161 153 154 159 159 157 149 138 131 130 132 132 130 126 121 119 119 120 120 117 113 109 107 107 108 108 108 108 105 102 99 97 96 96 93 89 90 91 86 82 79 77 75 70 66 59 53 56 59 34 20 38 60 45 35
203 199 197 199 196 193 184 179 180 159 153 169 171 165 168 178 191 185 163 162 166 177 187 180 167 164 167 170 168 164 161 156 157 158 155 152 144 137 135 134 136 135 129 126 124 124 124 122 121 118 113 112 112 112 112 110 107 104 101 99 97 95 93 91 90 87 85 83 80 77 74 73 72 63 54 52 51 47 48 32 14 11 24 31 24
200 199 191 191 192 189 182 179 178 164 161 170 166 165 176 186 191 177 160 165 167 180 188 175 165 170 172 174 174 171 167 160 156 154 152 151 146 140 139 139 139 137 132 131 130 129 130 127 123 119 116 116 117 116 114 109 106 102 99 98 95 93 91 88 86 84 81 78 76 73 70 68 67 61 49 44 46 42 35 28 15 5 358 7 6
190 199 191 188 190 186 180 176 173 167 165 167 166 171 183 192 189 170 164 171 169 178 183 173 170 175 176 180 180 174 169 165 160 155 153 154 150 144 143 142 141 139 136 136 136 136 134 129 124 122 120 120 119 116 114 110 107 104 101 99 96 92 90 86 84 82 79 77 74 73 72 69 66 63 56 50 49 43 31 21 8 356 347 355 354
185 197 191 188 190 184 179 175 172 169 167 168 168 171 184 195 188 168 169 177 172 171 173 174 178 178 178 181 181 175 171 168 164 159 158 158 153 149 147 147 145 143 143 141 140 141 137 131 129 126 123 122 120 116 113 111 109 106 104 101 96 92 88 85 83 81 79 78 76 74 72 69 66 63 59 54 49 43 32 18 2 354 345 355 359
196 196 189 186 183 178 176 175 171 169 170 170 168 170 183 195 185 168 171 179 175 168 166 172 181 183 184 185 183 177 172 168 166 162 160 158 154 152 152 152 149 148 148 145 144 145 139 134 132 128 126 124 120 117 113 112 111 108 106 102 96 92 88 85 83 81 79 78 77 75 73 71 67 63 60 55 49 44 34 18 3 358 346 357 5
200 194 192 184 175 172 174 174 171 169 171 170 167 172 183 192 185 168 167 176 176 170 166 174 183 185 187 186 182 178 173 169 166 163 160 157 155 155 155 154 152 151 150 148 148 147 140 136 134 131 129 127 121 117 115 114 113 110 106 102 97 93 89 86 83 81 79 77 76 76 73 71 67 63 61 58 53 49 42 29 18 13 2 357 1
197 192 194 183 170 170 174 172 169 172 175 171 170 175 181 188 183 163 164 175 173 170 173 179 185 185 184 184 181 179 174 168 165 161 158 156 155 156 155 154 153 152 151 150 151 150 143 139 137 135 132 129 123 118 116 117 114 110 107 102 98 93 89 86 83 81 78 76 75 75 72 71 68 65 63 60 56 52 46 40 34 28 13 354 351
195 190 191 182 172 171 175 172 169 174 178 174 173 177 178 182 175 157 171 185 171 173 184 186 186 186 184 184 183 181 177 172 166 161 156 156 157 157 155 154 155 153 153 154 154 151 146 142 140 139 136 131 125 120 118 118 115 111 109 104 99 95 90 87 84 81 79 77 75 75 73 72 69 67 64 60 56 52 47 43 39 32 21 2 346
195 188 184 181 176 173 173 172 169 171 177 175 173 175 173 173 166 158 176 191 175 175 185 185 186 187 186 186 184 180 178 174 168 162 159 159 159 159 157 156 156 156 156 157 156 153 148 145 143 141 139 134 127 122 120 119 117 113 110 105 101 97 92 88 85 82 80 78 78 77 76 75 71 67 63 58 53 48 44 40 35 30 22 11 349
194 187 183 179 179 176 171 168 167 168 172 173 171 172 168 167 167 168 180 190 181 175 177 181 188 191 187 186 184 180 178 173 168 165 163 162 162 161 160 159 159 159 159 158 159 156 151 148 145 144 142 137 129 124 122 121 119 116 112 108 103 98 94 89 86 84 83 82 82 81 78 75 71 65 59 54 48 44 40 35 28 23 15 6 345
189 184 182 176 178 179 173 166 163 164 167 167 167 168 166 165 167 171 179 184 181 175 176 181 188 189 185 182 182 180 176 171 169 166 165 165 164 163 162 161 161 161 161 161 162 159 154 150 148 147 145 139 133 127 125 124 122 119 115 111 105 99 95 91 88 87 88 88 86 83 78 72 67 61 54 49 43 37 34 30 22 14 8 356 339
183 178 177 172 173 176 173 167 164 164 164 164 164 164 164 164 166 172 177 177 174 174 179 184 185 185 183 181 180 178 174 171 169 168 167 166 165 164 164 164 163 163 163 164 164 161 157 153 150 149 148 143 137 131 128 128 125 122 118 111 106 101 96 94 93 91 92 92 88 82 75 68 63 58 51 45 37 31 26 23 16 7 2 357 340
178 173 173 170 170 172 170 167 165 162 160 161 164 163 162 163 167 174 176 173 172 174 178 182 182 181 182 180 178 176 174 172 170 169 169 167 165 166 166 166 165 165 165 166 166 164 160 157 154 153 151 146 140 135 133 132 128 123 118 112 108 104 100 98 97 95 94 92 87 80 71 65 60 54 48 41 32 27 22 16 11 4 359 358 349
172 169 171 167 167 168 165 162 160 160 159 162 164 163 165 167 170 173 173 173 176 176 176 177 177 180 182 179 176 175 174 173 171 172 171 168 167 167 169 170 168 166 168 168 168 166 163 161 158 156 154 150 144 140 138 135 130 124 119 115 111 107 104 102 99 99 97 91 85 77 67 59 54 48 42 36 28 22 17 11 5 1 356 354 352
168 164 164 160 160 162 160 157 157 158 159 160 160 162 167 170 172 173 172 173 176 175 175 177 178 179 179 177 175 174 174 174 174 174 173 170 169 169 172 172 170 169 170 170 170 169 167 165 163 161 157 154 149 144 142 138 132 128 124 120 116 112 108 103 99 99 97 91 82 73 61 52 47 41 36 30 24 18 13 7 2 359 356 352 351
167 162 155 153 157 160 158 157 159 160 160 158 158 162 168 170 173 174 173 173 174 173 175 179 179 177 176 176 176 175 176 177 177 176 174 172 171 172 174 173 171 171 172 172 172 171 171 171 168 165 162 158 153 148 145 142 136 132 129 126 123 119 112 105 101 98 96 90 78 67 56 46 40 36 32 24 19 15 10 6 3 1 358 353 352
173 169 159 154 159 161 159 159 162 164 162 159 157 161 168 172 174 177 177 174 172 173 175 178 178 175 175 177 178 178 179 179 178 176 174 173 173 174 174 174 173 174 174 175 175 175 176 175 173 170 166 162 158 153 150 148 143 137 134 132 129 125 119 110 104 100 96 88 74 61 51 44 38 33 28 20 13 9 6 5 3 1 358 355 352
173 171 163 159 162 164 161 161 164 166 165 164 162 161 167 172 175 179 180 176 173 174 175 177 177 177 178 179 179 180 180 180 179 177 175 175 175 175 175 174 175 177 177 177 178 179 179 178 176 174 171 167 162 159 157 155 150 145 142 140 137 133 127 119 110 105 98 86 71 59 49 43 39 32 25 17 11 6 4 4 3 0 358 354 351
167 170 166 161 161 163 163 161 163 166 166 166 164 162 166 173 178 180 178 175 175 176 176 177 179 179 179 179 179 180 181 180 179 178 176 176 177 176 176 176 177 180 180 180 181 182 181 180 178 176 174 172 167 163 162 160 157 155 152 150 147 144 139 129 118 111 102 87 70 58 51 46 40 31 22 16 11 7 5 5 3 1 358 353 350
164 164 163 162 164 166 166 163 162 164 164 161 160 161 163 169 178 181 179 177 177 178 178 179 180 179 178 179 179 180 180 180 179 178 178 178 178 177 177 178 181 183 183 183 184 185 183 181 180 179 178 176 172 169 168 166 165 164 162 161 160 156 150 140 129 119 107 90 72 58 49 44 36 26 19 15 12 10 10 8 6 5 1 354 349
162 161 164 168 169 168 166 164 163 164 164 160 161 163 162 165 175 180 180 179 179 179 179 179 178 178 178 179 179 179 180 180 179 179 179 178 179 179 179 181 183 185 186 186 187 187 186 184 182 181 181 179 178 176 173 172 171 170 170 171 171 168 161 152 142 133 119 96 74 57 43 35 27 19 16 15 13 13 15 15 12 12 10 1 352
168 168 169 170 169 169 168 168 168 168 167 163 162 167 168 166 172 178 180 180 179 179 179 179 178 178 178 178 178 178 180 180 180 180 179 179 180 180 181 183 184 187 189 190 189 188 188 187 185 184 184 183 183 180 176 175 176 174 175 176 177 177 171 163 155 148 135 104 73 54 35 24 19 15 12 13 15 18 21 21 18 18 18 14 4
176 174 172 172 171 171 172 172 173 172 170 167 165 168 170 169 173 177 179 180 179 180 181 180 180 179 178 178 178 178 179 180 180 180 179 180 181 182 184 185 186 189 191 192 191 190 189 189 188 187 186 185 186 183 179 178 178 178 179 177 177 178 176 174 171 165 155 114 68 47 31 19 12 10 10 12 16 21 24 23 21 22 22 19 15
180 176 175 176 175 176 177 176 175 173 170 169 168 168 170 175 178 178 179 179 179 180 180 179 180 181 179 180 180 179 179 180 180 180 180 181 182 183 185 187 188 192 193 192 191 190 190 190 189 188 187 186 186 185 183 182 182 184 184 181 178 176 179 183 181 179 174 134 63 42 34 18 6 7 10 13 17 21 23 25 27 27 23 20 18
182 178 177 178 178 177 175 174 173 170 167 167 168 169 173 177 180 180 180 181 181 180 180 179 181 181 180 180 179 178 179 180 180 181 181 182 183 185 187 189 192 193 191 190 190 190 190 189 189 188 187 186 186 186 186 186 187 189 189 186 182 178 182 189 190 189 184 151 51 38 40 18 6 6 8 13 18 20 22 25 28 29 26 22 19
182 180 178 177 175 171 168 169 169 167 165 164 165 170 174 176 180 181 181 182 183 182 183 182 181 181 181 181 180 180 179 179 179 180 181 182 185 186 188 191 193 191 189 188 188 189 189 188 188 188 186 185 186 186 187 189 190 193 193 191 190 189 190 193 195 196 192 173 34 37 31 11 6 7 8 13 18 20 21 22 23 25 25 24 20
183 182 179 174 170 166 165 167 165 164 167 167 167 170 171 173 179 181 181 183 184 184 185 184 182 182 182 179 177 175 174 175 177 178 180 183 186 187 189 192 192 190 188 187 187 188 189 188 188 188 187 186 186 187 188 190 193 196 194 193 193 192 192 196 199 201 199 190 85 55 28 6 4 5 7 14 18 19 20 18 17 19 19 19 16
183 179 171 162 161 162 164 164 162 164 168 169 170 171 170 173 180 181 180 182 184 185 185 183 181 178 174 168 167 169 172 178 181 181 183 186 187 188 190 192 192 189 187 187 187 188 189 188 187 188 188 187 186 187 188 190 194 197 196 194 192 188 189 195 199 199 196 187 158 94 27 5 4 3 5 14 19 20 19 13 11 13 12 8 7
177 171 160 157 160 163 166 166 165 167 171 172 174 173 172 175 179 180 179 178 182 186 185 182 178 173 169 170 175 181 184 187 188 188 188 188 189 190 192 193 192 190 189 188 188 188 189 189 188 189 189 188 186 186 187 190 196 202 202 197 191 185 186 189 192 193 190 183 176 156 20 359 359 1 1 9 17 20 17 10 6 6 4 1 2
176 173 169 165 162 161 164 165 165 169 173 176 177 175 173 174 176 178 179 177 181 187 187 182 178 174 174 177 182 186 189 191 193 192 190 189 190 191 193 194 194 193 191 189 188 188 188 188 189 190 191 191 188 188 191 195 201 205 202 194 187 184 184 184 184 187 187 183 184 196 298 333 355 0 356 359 10 16 14 8 3 359 355 353 356
178 178 174 166 159 160 164 167 170 171 173 176 176 174 175 177 175 177 180 182 185 188 186 182 179 176 177 180 184 187 189 192 193 192 191 192 192 192 194 196 196 194 191 189 188 188 187 186 187 189 191 193 194 193 194 196 198 198 193 187 184 184 184 184 184 185 185 183 184 198 245 285 343 358 350 346 355 3 6 4 0 354 347 345 349
175 175 169 163 164 168 171 172 172 169 171 175 176 175 177 179 176 178 184 187 187 186 181 179 178 177 178 182 187 189 189 191 193 192 192 193 193 195 199 200 196 193 191 189 187 187 186 185 186 188 191 195 198 197 193 189 189 190 187 185 187 188 184 184 186 187 186 183 181 189 222 256 305 342 344 341 341 345 350 350 349 347 343 343 346
168 168 167 166 169 171 170 169 169 168 172 175 175 176 180 179 179 186 189 186 184 182 179 178 177 177 179 184 189 190 188 189 191 191 190 189 191 197 201 201 197 194 192 190 188 186 185 184 185 189 193 195 196 194 189 184 185 189 187 186 189 189 184 181 182 183 184 186 188 196 220 248 278 317 331 333 336 339 338 332 331 336 340 344 346
164 167 170 168 168 170 169 166 167 170 173 175 175 177 178 180 187 193 190 184 183 182 180 178 177 178 182 186 189 188 187 188 189 191 190 189 190 194 197 198 197 192 189 189 188 187 184 182 183 186 190 192 190 188 186 185 186 189 188 186 184 180 176 175 175 177 180 186 196 208 225 246 275 306 316 321 329 337 336 328 324 326 331 339 344
168 171 171 168 167 170 169 167 168 171 174 177 178 177 177 184 192 193 186 183 183 181 179 179 178 179 183 186 187 187 187 188 190 192 193 192 191 191 192 195 196 191 186 186 187 186 183 180 179 179 183 187 187 184 183 185 186 188 187 183 176 171 171 173 175 178 184 191 202 214 228 249 280 300 308 314 321 332 335 330 325 323 326 334 341
171 171 171 170 169 168 166 167 171 173 175 179 181 179 181 188 192 189 184 183 182 180 180 180 179 180 183 184 184 185 186 188 190 192 192 192 190 188 189 193 193 189 185 184 184 185 184 180 177 176 178 183 184 182 181 183 185 188 188 184 177 173 176 179 180 185 191 198 205 217 232 256 281 297 307 310 313 324 331 328 326 326 326 330 337
169 168 169 171 168 165 166 167 170 173 177 181 184 184 186 190 190 187 186 184 180 179 179 179 180 181 183 182 181 182 185 189 191 192 193 193 191 189 190 191 190 187 184 183 184 185 183 180 179 176 176 180 182 182 182 185 186 188 190 189 183 180 182 185 187 191 196 202 211 223 240 261 278 292 302 303 305 317 327 327 329 331 330 330 334
165 164 167 169 167 167 168 166 166 172 179 183 186 189 190 189 187 186 186 183 180 178 178 179 180 181 182 182 182 182 186 189 189 190 191 193 194 195 193 191 189 188 186 186 187 186 183 182 181 177 176 179 182 184 187 189 190 190 192 193 189 188 189 190 192 197 201 206 216 229 246 263 275 286 295 298 303 312 319 321 323 325 328 334 337
161 161 166 168 168 170 170 167 168 174 179 182 185 188 190 188 185 184 183 181 179 179 179 179 181 181 182 183 183 184 186 187 188 189 190 193 195 196 194 193 193 194 193 191 189 188 188 187 183 180 179 181 186 192 194 192 190 190 193 195 194 194 196 196 196 201 206 211 221 234 249 262 269 278 285 289 294 301 304 310 316 321 330 338 342
162 163 168 169 168 169 168 168 170 173 176 178 180 185 189 188 185 184 183 180 179 179 179 179 181 182 182 182 184 185 186 186 187 189 191 196 199 198 198 201 203 204 203 200 197 194 193 191 188 186 184 185 192 199 197 192 190 191 195 199 200 201 202 201 202 206 210 216 227 235 242 249 253 261 272 277 286 295 300 306 315 324 332 337 338
163 165 171 170 168 168 167 167 169 170 174 175 175 180 186 186 185 185 183 180 178 177 177 179 180 182 183 183 184 186 187 187 187 188 191 198 202 203 205 209 210 210 210 209 207 204 201 196 194 193 192 191 195 197 194 192 195 198 202 206 209 210 210 208 209 212 216 225 235 235 234 237 240 250 265 273 284 296 301 305 312 319 327 334 336
163 168 173 172 168 168 167 167 167 169 174 174 172 176 182 185 186 186 185 182 179 176 176 179 182 184 186 187 186 185 186 188 190 191 193 194 197 202 207 211 212 212 211 212 213 212 209 204 201 200 198 197 201 205 206 209 211 211 212 214 214 213 213 213 215 218 224 232 237 234 233 237 239 246 258 269 282 292 297 302 308 311 318 327 331